Location: Newark
(50.0336°N, 22.0047°E)
Time: 20:38:37
(UTC+00:00)

N. Korean satellite - Pass Details

Date: 25 January 2020
Orbit: 456 x 505 km, 97.2° (Epoch: 22 February)

Event Time Altitude Azimuth Distance (km) Brightness Sun altitude
Rises 04:07:15 0° 17° (NNE) 2,534 10.4 -20.4°
Reaches altitude 10° 04:09:22 10° 24° (NNE) 1,659 9.5 -20.0°
Maximum altitude 04:12:49 47° 99° (E) 649 7.6 -19.5°
Drops below altitude 10° 04:16:18 10° 175° (S) 1,672 9.4 -18.9°
Sets 04:18:26 0° 181° (S) 2,556 10.3 -18.6°
